ANZ172 NTAA-SCIP

Flight info

Callsign ANZ172
Flight time 5h 23m
Altitude 37000
Route ONIDO Q23 TATIA UL348 SUNTA/N0452F390 UL348 VUGSU VUGSU2A
Aircraft A20N/M-SDE2E3FGHIRWXY/LB1

Departure

Time 2026-04-29 08:56
Airport Fa'a'ā International Airport (NTAA)

Arrival

Time 2026-04-29 14:20
Airport Mataveri International Airport (SCIP)
Time Latitude Longitude Altitude Speed Heading
2026-04-29 08:27 -17.55892 -149.61036 13 ft 0 kts 120°
2026-04-29 08:45 -17.55888 -149.61043 14 ft 1 kts 120°
2026-04-29 08:45 -17.55882 -149.61053 14 ft 2 kts 120°
2026-04-29 08:46 -17.55875 -149.61066 16 ft 2 kts 120°
2026-04-29 08:46 -17.55866 -149.61082 14 ft 3 kts 120°
2026-04-29 08:46 -17.55860 -149.61101 13 ft 3 kts 81°
2026-04-29 08:46 -17.55864 -149.61114 14 ft 0 kts 65°
2026-04-29 08:52 -17.55863 -149.61112 14 ft 2 kts 65°
2026-04-29 08:52 -17.55846 -149.61073 16 ft 5 kts 65°
2026-04-29 08:52 -17.55815 -149.61056 13 ft 6 kts 19°
2026-04-29 08:52 -17.55771 -149.61068 15 ft 7 kts 326°
2026-04-29 08:53 -17.55754 -149.61081 14 ft 0 kts 324°
2026-04-29 08:54 -17.55752 -149.61082 14 ft 2 kts 324°
2026-04-29 08:54 -17.55719 -149.61106 14 ft 8 kts 324°
2026-04-29 08:54 -17.55676 -149.61148 14 ft 8 kts 323°
2026-04-29 08:55 -17.55647 -149.61131 14 ft 5 kts 39°
2026-04-29 08:55 -17.55639 -149.61122 14 ft 0 kts 49°
2026-04-29 08:55 -17.55569 -149.61025 14 ft 50 kts 54°
2026-04-29 08:55 -17.55231 -149.60532 15 ft 116 kts 54°
2026-04-29 08:56 -17.54650 -149.59682 16 ft 168 kts 54°
2026-04-29 08:56 -17.53966 -149.58642 577 ft 171 kts 57°
2026-04-29 08:56 -17.53337 -149.57624 1379 ft 164 kts 58°
2026-04-29 08:56 -17.52720 -149.56612 2080 ft 171 kts 62°
2026-04-29 08:57 -17.52334 -149.55394 2466 ft 185 kts 86°
2026-04-29 08:57 -17.52588 -149.54015 2801 ft 207 kts 115°
2026-04-29 08:57 -17.53423 -149.52710 3257 ft 226 kts 126°
2026-04-29 08:57 -17.54382 -149.51308 3611 ft 248 kts 117°
2026-04-29 08:58 -17.55058 -149.49589 4058 ft 258 kts 103°
2026-04-29 08:58 -17.55546 -149.47807 5015 ft 256 kts 107°
2026-04-29 08:58 -17.56171 -149.46030 5558 ft 265 kts 110°
2026-04-29 08:58 -17.56891 -149.44210 6134 ft 274 kts 111°
2026-04-29 08:59 -17.57638 -149.42392 7024 ft 270 kts 111°
2026-04-29 08:59 -17.58399 -149.40595 7944 ft 270 kts 111°
2026-04-29 08:59 -17.59180 -149.38818 8813 ft 267 kts 112°
2026-04-29 08:59 -17.59934 -149.36989 9286 ft 279 kts 109°
2026-04-29 09:00 -17.60660 -149.35089 9899 ft 283 kts 109°
2026-04-29 09:00 -17.61401 -149.33148 10320 ft 295 kts 110°
2026-04-29 09:00 -17.62206 -149.31079 10484 ft 316 kts 110°
2026-04-29 09:00 -17.63072 -149.28896 10683 ft 332 kts 111°
2026-04-29 09:01 -17.63978 -149.26639 11165 ft 338 kts 111°
2026-04-29 09:01 -17.64897 -149.24357 11725 ft 342 kts 111°
2026-04-29 09:01 -17.65826 -149.22051 12277 ft 345 kts 111°
2026-04-29 09:01 -17.66763 -149.19723 12820 ft 348 kts 111°
2026-04-29 09:02 -17.67707 -149.17371 13386 ft 351 kts 111°
2026-04-29 09:02 -17.68656 -149.15006 13908 ft 355 kts 111°
2026-04-29 09:02 -17.69617 -149.12611 14395 ft 358 kts 111°
2026-04-29 09:02 -17.70588 -149.10188 14855 ft 362 kts 111°
2026-04-29 09:03 -17.71568 -149.07743 15309 ft 366 kts 111°
2026-04-29 09:03 -17.72557 -149.05272 15767 ft 369 kts 111°
2026-04-29 09:03 -17.73555 -149.02779 16211 ft 373 kts 110°
2026-04-29 09:03 -17.74564 -149.00257 16647 ft 377 kts 110°
2026-04-29 09:04 -17.75584 -148.97707 17068 ft 380 kts 110°
2026-04-29 09:04 -17.76611 -148.95138 17496 ft 384 kts 110°
2026-04-29 09:04 -17.77648 -148.92544 17928 ft 388 kts 110°
2026-04-29 09:04 -17.78696 -148.89919 18332 ft 392 kts 110°
2026-04-29 09:05 -17.79738 -148.87312 18715 ft 394 kts 110°
2026-04-29 09:05 -17.80815 -148.84614 19125 ft 396 kts 110°
2026-04-29 09:05 -17.81868 -148.81975 19496 ft 399 kts 110°
2026-04-29 09:05 -17.82945 -148.79274 19870 ft 402 kts 110°
2026-04-29 09:06 -17.84041 -148.76523 20271 ft 405 kts 111°
2026-04-29 09:06 -17.85116 -148.73825 20639 ft 408 kts 111°
2026-04-29 09:06 -17.86228 -148.71032 21017 ft 411 kts 111°
2026-04-29 09:06 -17.87333 -148.68254 21390 ft 414 kts 111°
2026-04-29 09:07 -17.88430 -148.65497 21768 ft 416 kts 111°
2026-04-29 09:07 -17.89562 -148.62647 22139 ft 419 kts 111°
2026-04-29 09:07 -17.90675 -148.59847 22516 ft 422 kts 111°
2026-04-29 09:07 -17.91807 -148.56998 22878 ft 425 kts 111°
2026-04-29 09:08 -17.92947 -148.54128 23247 ft 428 kts 111°
2026-04-29 09:08 -17.94094 -148.51236 23588 ft 431 kts 111°
2026-04-29 09:08 -17.95248 -148.48326 23912 ft 433 kts 111°
2026-04-29 09:08 -17.96409 -148.45398 24247 ft 434 kts 111°
2026-04-29 09:09 -17.97569 -148.42469 24572 ft 436 kts 111°
2026-04-29 09:09 -17.98741 -148.39510 24874 ft 439 kts 111°
2026-04-29 09:09 -17.99911 -148.36554 25197 ft 440 kts 111°
2026-04-29 09:09 -18.01090 -148.33573 25536 ft 441 kts 111°
2026-04-29 09:10 -18.02265 -148.30599 25843 ft 443 kts 111°
2026-04-29 09:10 -18.03452 -148.27595 26133 ft 445 kts 112°
2026-04-29 09:10 -18.04640 -148.24588 26440 ft 447 kts 112°
2026-04-29 09:10 -18.05833 -148.21565 26746 ft 448 kts 112°
2026-04-29 09:11 -18.07029 -148.18535 27032 ft 450 kts 112°
2026-04-29 09:11 -18.08226 -148.15497 27303 ft 452 kts 112°
2026-04-29 09:11 -18.09430 -148.12443 27588 ft 453 kts 112°
2026-04-29 09:11 -18.10637 -148.09379 27842 ft 455 kts 112°
2026-04-29 09:12 -18.11849 -148.06299 28132 ft 456 kts 112°
2026-04-29 09:12 -18.13062 -148.03215 28420 ft 457 kts 112°
2026-04-29 09:12 -18.14277 -148.00126 28693 ft 458 kts 112°
2026-04-29 09:12 -18.15496 -147.97024 28949 ft 460 kts 112°
2026-04-29 09:13 -18.16720 -147.93909 29202 ft 461 kts 112°
2026-04-29 09:13 -18.17944 -147.90792 29473 ft 462 kts 112°
2026-04-29 09:13 -18.19175 -147.87655 29735 ft 464 kts 112°
2026-04-29 09:13 -18.20404 -147.84522 30005 ft 465 kts 112°
2026-04-29 09:14 -18.21638 -147.81373 30214 ft 466 kts 112°
2026-04-29 09:14 -18.22875 -147.78214 30431 ft 468 kts 112°
2026-04-29 09:14 -18.24117 -147.75042 30652 ft 469 kts 112°
2026-04-29 09:14 -18.25357 -147.71874 30910 ft 469 kts 112°
2026-04-29 09:15 -18.26598 -147.68701 31173 ft 469 kts 113°
2026-04-29 09:15 -18.27838 -147.65528 31446 ft 468 kts 113°
2026-04-29 09:15 -18.29077 -147.62372 31747 ft 467 kts 113°
2026-04-29 09:15 -18.30333 -147.59222 32035 ft 466 kts 114°
2026-04-29 09:16 -18.31589 -147.56092 32346 ft 464 kts 114°
2026-04-29 09:16 -18.32844 -147.52964 32624 ft 463 kts 114°
2026-04-29 09:16 -18.34093 -147.49847 32893 ft 461 kts 114°
2026-04-29 09:16 -18.35336 -147.46738 33157 ft 460 kts 114°
2026-04-29 09:17 -18.36571 -147.43647 33421 ft 459 kts 114°
2026-04-29 09:17 -18.37810 -147.40543 33648 ft 458 kts 114°
2026-04-29 09:17 -18.39040 -147.37454 33880 ft 457 kts 114°
2026-04-29 09:17 -18.40252 -147.34412 34015 ft 457 kts 114°
2026-04-29 09:18 -18.41479 -147.31330 34013 ft 455 kts 114°
2026-04-29 09:18 -18.43924 -147.25186 34016 ft 455 kts 114°
2026-04-29 09:19 -18.46370 -147.19035 34014 ft 456 kts 114°
2026-04-29 09:19 -18.48814 -147.12877 34017 ft 456 kts 114°
2026-04-29 09:20 -18.51262 -147.06707 34020 ft 456 kts 114°
2026-04-29 09:20 -18.53295 -147.01577 34018 ft 457 kts 114°
2026-04-29 09:21 -18.55756 -146.95358 34019 ft 457 kts 114°
2026-04-29 09:21 -18.58182 -146.89225 34020 ft 457 kts 114°
2026-04-29 09:22 -18.60628 -146.83033 34022 ft 458 kts 114°
2026-04-29 09:22 -18.63082 -146.76818 34018 ft 459 kts 114°
2026-04-29 09:23 -18.65534 -146.70593 34023 ft 460 kts 114°
2026-04-29 09:23 -18.67992 -146.64350 34023 ft 462 kts 114°
2026-04-29 09:24 -18.70461 -146.58073 34028 ft 463 kts 114°
2026-04-29 09:24 -18.72926 -146.51796 34026 ft 464 kts 113°
2026-04-29 09:25 -18.75396 -146.45501 34026 ft 465 kts 113°
2026-04-29 09:25 -18.77870 -146.39188 34028 ft 466 kts 113°
2026-04-29 09:26 -18.80345 -146.32864 34028 ft 467 kts 113°
2026-04-29 09:26 -18.82827 -146.26515 34025 ft 467 kts 113°
2026-04-29 09:27 -18.85301 -146.20178 34028 ft 467 kts 113°
2026-04-29 09:27 -18.87777 -146.13828 34238 ft 468 kts 113°
2026-04-29 09:27 -18.89012 -146.10658 34425 ft 467 kts 113°
2026-04-29 09:28 -18.90248 -146.07482 34605 ft 466 kts 113°
2026-04-29 09:28 -18.91476 -146.04327 34803 ft 465 kts 113°
2026-04-29 09:28 -18.92690 -146.01206 34956 ft 465 kts 113°
2026-04-29 09:28 -18.93932 -145.98012 35125 ft 464 kts 113°
2026-04-29 09:29 -18.95142 -145.94895 35272 ft 463 kts 113°
2026-04-29 09:29 -18.97603 -145.88556 35574 ft 462 kts 113°
2026-04-29 09:29 -18.98819 -145.85421 35735 ft 461 kts 113°
2026-04-29 09:30 -19.00016 -145.82330 35850 ft 461 kts 113°
2026-04-29 09:30 -19.01232 -145.79192 35983 ft 461 kts 113°
2026-04-29 09:30 -19.03655 -145.72932 36030 ft 460 kts 113°
2026-04-29 09:31 -19.06078 -145.66665 36129 ft 461 kts 113°
2026-04-29 09:31 -19.07287 -145.63535 36251 ft 460 kts 113°
2026-04-29 09:31 -19.08496 -145.60402 36354 ft 460 kts 112°
2026-04-29 09:32 -19.09703 -145.57274 36459 ft 460 kts 112°
2026-04-29 09:32 -19.10908 -145.54149 36528 ft 460 kts 112°
2026-04-29 09:32 -19.13316 -145.47898 36535 ft 459 kts 112°
2026-04-29 09:33 -19.15729 -145.41627 36611 ft 460 kts 112°
2026-04-29 09:33 -19.18136 -145.35365 36820 ft 459 kts 112°
2026-04-29 09:34 -19.20537 -145.29109 36992 ft 459 kts 112°
2026-04-29 09:34 -19.22938 -145.22847 37037 ft 459 kts 112°
2026-04-29 09:35 -19.25334 -145.16590 37038 ft 459 kts 111°
2026-04-29 09:35 -19.27732 -145.10322 37040 ft 459 kts 111°
2026-04-29 09:36 -19.30123 -145.04066 37040 ft 458 kts 111°
2026-04-29 09:36 -19.32494 -144.97812 37041 ft 458 kts 110°
2026-04-29 09:37 -19.34692 -144.91480 37039 ft 457 kts 109°
2026-04-29 09:37 -19.36877 -144.85155 37047 ft 458 kts 109°
2026-04-29 09:38 -19.39079 -144.78843 37047 ft 456 kts 109°
2026-04-29 09:38 -19.41267 -144.72583 37046 ft 456 kts 109°
2026-04-29 09:39 -19.43460 -144.66298 37049 ft 455 kts 109°
2026-04-29 09:39 -19.45651 -144.60011 37048 ft 454 kts 109°
2026-04-29 09:40 -19.47834 -144.53738 37047 ft 453 kts 109°
2026-04-29 09:40 -19.50009 -144.47476 37047 ft 452 kts 109°
2026-04-29 09:41 -19.52178 -144.41227 37051 ft 452 kts 109°
2026-04-29 09:41 -19.54345 -144.34976 37047 ft 451 kts 109°
2026-04-29 09:42 -19.56506 -144.28733 37048 ft 451 kts 109°
2026-04-29 09:42 -19.58662 -144.22496 37047 ft 450 kts 109°
2026-04-29 09:43 -19.60812 -144.16267 37052 ft 450 kts 109°
2026-04-29 09:43 -19.62961 -144.10038 37052 ft 449 kts 109°
2026-04-29 09:44 -19.65103 -144.03822 37052 ft 448 kts 109°
2026-04-29 09:44 -19.67235 -143.97624 37054 ft 448 kts 109°
2026-04-29 09:45 -19.69368 -143.91412 37057 ft 448 kts 109°
2026-04-29 09:45 -19.71496 -143.85211 37058 ft 447 kts 109°
2026-04-29 09:46 -19.73622 -143.79010 37060 ft 446 kts 109°
2026-04-29 09:46 -19.75740 -143.72821 37058 ft 446 kts 109°
2026-04-29 09:47 -19.77857 -143.66626 37059 ft 446 kts 109°
2026-04-29 09:47 -19.79969 -143.60440 37063 ft 446 kts 109°
2026-04-29 09:48 -19.82077 -143.54254 37059 ft 445 kts 109°
2026-04-29 09:48 -19.84180 -143.48077 37061 ft 445 kts 109°
2026-04-29 09:49 -19.86280 -143.41901 37061 ft 445 kts 109°
2026-04-29 09:49 -19.88382 -143.35713 37061 ft 444 kts 109°
2026-04-29 09:50 -19.90463 -143.29578 37064 ft 445 kts 109°
2026-04-29 09:50 -19.92553 -143.23406 37070 ft 444 kts 109°
2026-04-29 09:51 -19.94643 -143.17227 37067 ft 444 kts 109°
2026-04-29 09:51 -19.96727 -143.11061 37069 ft 443 kts 109°
2026-04-29 09:52 -19.98812 -143.04881 37068 ft 444 kts 109°
2026-04-29 09:52 -20.00892 -142.98711 37066 ft 443 kts 109°
2026-04-29 09:53 -20.02970 -142.92537 37068 ft 444 kts 109°
2026-04-29 09:53 -20.05045 -142.86362 37070 ft 443 kts 109°
2026-04-29 09:54 -20.07117 -142.80192 37072 ft 443 kts 109°
2026-04-29 09:54 -20.09186 -142.74023 37071 ft 443 kts 109°
2026-04-29 09:55 -20.11254 -142.67845 37071 ft 443 kts 109°
2026-04-29 09:55 -20.13319 -142.61671 37074 ft 442 kts 109°
2026-04-29 09:56 -20.15377 -142.55508 37071 ft 443 kts 109°
2026-04-29 09:56 -20.17442 -142.49319 37078 ft 443 kts 108°
2026-04-29 09:57 -20.19498 -142.43148 37077 ft 442 kts 108°
2026-04-29 09:57 -20.21550 -142.36978 37077 ft 443 kts 108°
2026-04-29 09:58 -20.23602 -142.30806 37076 ft 442 kts 108°
2026-04-29 09:58 -20.25649 -142.24629 37075 ft 443 kts 108°
2026-04-29 09:59 -20.27698 -142.18446 37079 ft 443 kts 108°
2026-04-29 09:59 -20.29731 -142.12305 37083 ft 443 kts 108°
2026-04-29 10:00 -20.31775 -142.06117 37081 ft 442 kts 108°
2026-04-29 10:00 -20.33810 -141.99954 37086 ft 441 kts 108°
2026-04-29 10:01 -20.35846 -141.93773 37084 ft 443 kts 108°
2026-04-29 10:01 -20.37884 -141.87586 37080 ft 442 kts 108°
2026-04-29 10:02 -20.39911 -141.81420 37077 ft 440 kts 108°
2026-04-29 10:02 -20.41939 -141.75242 37078 ft 443 kts 108°
2026-04-29 10:03 -20.43973 -141.69042 37073 ft 442 kts 108°
2026-04-29 10:03 -20.45999 -141.62851 37082 ft 443 kts 108°
2026-04-29 10:04 -20.48024 -141.56656 37088 ft 442 kts 108°
2026-04-29 10:04 -20.50046 -141.50464 37092 ft 443 kts 108°
2026-04-29 10:05 -20.52065 -141.44274 37093 ft 441 kts 108°
2026-04-29 10:05 -20.54079 -141.38088 37091 ft 441 kts 108°
2026-04-29 10:06 -20.56085 -141.31918 37092 ft 441 kts 108°
2026-04-29 10:06 -20.58098 -141.25722 37094 ft 442 kts 108°
2026-04-29 10:07 -20.60092 -141.19573 37096 ft 441 kts 108°
2026-04-29 10:07 -20.62100 -141.13376 37094 ft 442 kts 108°
2026-04-29 10:08 -20.64104 -141.07180 37093 ft 441 kts 108°
2026-04-29 10:08 -20.66108 -141.00976 37092 ft 442 kts 108°
2026-04-29 10:09 -20.67781 -140.95791 37095 ft 441 kts 108°
2026-04-29 10:09 -20.69766 -140.89629 37100 ft 442 kts 108°
2026-04-29 10:10 -20.71763 -140.83424 37098 ft 441 kts 108°
2026-04-29 10:10 -20.73756 -140.77222 37090 ft 442 kts 108°
2026-04-29 10:11 -20.75749 -140.71009 37090 ft 442 kts 108°
2026-04-29 10:11 -20.77736 -140.64808 37092 ft 441 kts 108°
2026-04-29 10:12 -20.79723 -140.58598 37093 ft 441 kts 108°
2026-04-29 10:12 -20.81705 -140.52393 37094 ft 441 kts 108°
2026-04-29 10:13 -20.83688 -140.46180 37097 ft 441 kts 108°
2026-04-29 10:13 -20.85666 -140.39971 37090 ft 441 kts 108°
2026-04-29 10:14 -20.87638 -140.33771 37093 ft 441 kts 108°
2026-04-29 10:14 -20.89612 -140.27560 37095 ft 441 kts 108°
2026-04-29 10:15 -20.91584 -140.21346 37096 ft 441 kts 108°
2026-04-29 10:15 -20.93551 -140.15142 37097 ft 440 kts 108°
2026-04-29 10:16 -20.95519 -140.08932 37100 ft 441 kts 108°
2026-04-29 10:16 -20.97488 -140.02707 37100 ft 441 kts 108°
2026-04-29 10:17 -20.99439 -139.96497 37104 ft 441 kts 108°
2026-04-29 10:17 -21.01349 -139.90303 37105 ft 440 kts 108°
2026-04-29 10:18 -21.03277 -139.84080 37102 ft 440 kts 108°
2026-04-29 10:18 -21.05208 -139.77855 37100 ft 441 kts 108°
2026-04-29 10:19 -21.07138 -139.71627 37102 ft 440 kts 108°
2026-04-29 10:19 -21.09064 -139.65399 37094 ft 441 kts 108°
2026-04-29 10:20 -21.10985 -139.59175 37087 ft 440 kts 108°
2026-04-29 10:20 -21.12904 -139.52949 37098 ft 441 kts 108°
2026-04-29 10:21 -21.14822 -139.46717 37101 ft 441 kts 108°
2026-04-29 10:21 -21.16737 -139.40485 37101 ft 440 kts 108°
2026-04-29 10:22 -21.18652 -139.34242 37097 ft 441 kts 108°
2026-04-29 10:22 -21.20566 -139.27997 37109 ft 441 kts 108°
2026-04-29 10:23 -21.22473 -139.21762 37107 ft 440 kts 108°
2026-04-29 10:23 -21.24378 -139.15526 37108 ft 441 kts 108°
2026-04-29 10:24 -21.26280 -139.09288 37109 ft 440 kts 108°
2026-04-29 10:24 -21.28187 -139.03043 37106 ft 442 kts 107°
2026-04-29 10:25 -21.30092 -138.96774 37105 ft 442 kts 107°
2026-04-29 10:25 -21.31992 -138.90514 37107 ft 441 kts 106°
2026-04-29 10:26 -21.33874 -138.84310 37105 ft 441 kts 106°
2026-04-29 10:26 -21.35770 -138.78049 37103 ft 441 kts 106°
2026-04-29 10:27 -21.38608 -138.68656 37106 ft 442 kts 106°
2026-04-29 10:28 -21.40499 -138.62389 37108 ft 441 kts 106°
2026-04-29 10:28 -21.42385 -138.56127 37109 ft 441 kts 106°
2026-04-29 10:29 -21.44272 -138.49854 37107 ft 441 kts 106°
2026-04-29 10:29 -21.46153 -138.43591 37108 ft 441 kts 106°
2026-04-29 10:30 -21.48030 -138.37329 37107 ft 441 kts 106°
2026-04-29 10:30 -21.49904 -138.31071 37107 ft 440 kts 106°
2026-04-29 10:31 -21.51778 -138.24801 37108 ft 441 kts 106°
2026-04-29 10:31 -21.53651 -138.18527 37107 ft 441 kts 106°
2026-04-29 10:32 -21.55520 -138.12258 37107 ft 441 kts 106°
2026-04-29 10:32 -21.57385 -138.05992 37110 ft 441 kts 106°
2026-04-29 10:33 -21.59250 -137.99713 37109 ft 441 kts 106°
2026-04-29 10:33 -21.61099 -137.93482 37114 ft 440 kts 106°
2026-04-29 10:34 -21.62968 -137.87177 37110 ft 441 kts 106°
2026-04-29 10:34 -21.64828 -137.80889 37105 ft 441 kts 106°
2026-04-29 10:35 -21.66665 -137.74666 37107 ft 440 kts 106°
2026-04-29 10:35 -21.68529 -137.68345 37115 ft 441 kts 106°
2026-04-29 10:36 -21.70377 -137.62068 37115 ft 441 kts 106°
2026-04-29 10:36 -21.72212 -137.55826 37119 ft 440 kts 106°
2026-04-29 10:37 -21.74055 -137.49546 37119 ft 441 kts 106°
2026-04-29 10:37 -21.75897 -137.43261 37120 ft 440 kts 106°
2026-04-29 10:38 -21.77737 -137.36974 37118 ft 441 kts 106°
2026-04-29 10:38 -21.79576 -137.30679 37121 ft 441 kts 105°
2026-04-29 10:39 -21.81413 -137.24382 37119 ft 441 kts 105°
2026-04-29 10:39 -21.83248 -137.18082 37108 ft 441 kts 105°
2026-04-29 10:40 -21.85079 -137.11788 37114 ft 441 kts 105°
2026-04-29 10:40 -21.86907 -137.05493 37112 ft 441 kts 105°
2026-04-29 10:41 -21.88734 -136.99189 37118 ft 441 kts 105°
2026-04-29 10:41 -21.90560 -136.92881 37120 ft 441 kts 105°
2026-04-29 10:42 -21.92385 -136.86567 37120 ft 441 kts 105°
2026-04-29 10:42 -21.94209 -136.80247 37121 ft 441 kts 105°
2026-04-29 10:43 -21.96028 -136.73935 37125 ft 442 kts 105°
2026-04-29 10:43 -21.97847 -136.67609 37123 ft 442 kts 105°
2026-04-29 10:44 -21.99662 -136.61288 37125 ft 441 kts 105°
2026-04-29 10:44 -22.01471 -136.54980 37121 ft 441 kts 105°
2026-04-29 10:45 -22.03281 -136.48657 37115 ft 441 kts 105°
2026-04-29 10:45 -22.05083 -136.42349 37104 ft 441 kts 105°
2026-04-29 10:46 -22.06884 -136.36039 37109 ft 440 kts 105°
2026-04-29 10:46 -22.08684 -136.29725 37104 ft 440 kts 105°
2026-04-29 10:47 -22.10467 -136.23452 37108 ft 440 kts 105°
2026-04-29 10:47 -22.12261 -136.17137 37112 ft 441 kts 105°
2026-04-29 10:48 -22.14064 -136.10779 37116 ft 441 kts 105°
2026-04-29 10:48 -22.15843 -136.04495 37110 ft 441 kts 105°
2026-04-29 10:49 -22.17632 -135.98161 37119 ft 442 kts 105°
2026-04-29 10:49 -22.19423 -135.91813 37107 ft 442 kts 105°
2026-04-29 10:50 -22.21209 -135.85472 37109 ft 442 kts 105°
2026-04-29 10:50 -22.22998 -135.79112 37122 ft 443 kts 105°
2026-04-29 10:51 -22.24781 -135.72764 37129 ft 442 kts 105°
2026-04-29 10:51 -22.26565 -135.66398 37131 ft 443 kts 105°
2026-04-29 10:52 -22.28344 -135.60042 37131 ft 443 kts 105°
2026-04-29 10:52 -22.30124 -135.53672 37128 ft 443 kts 105°
2026-04-29 10:53 -22.31901 -135.47303 37126 ft 443 kts 105°
2026-04-29 10:53 -22.33677 -135.40924 37114 ft 443 kts 105°
2026-04-29 10:54 -22.35446 -135.34559 37111 ft 443 kts 105°
2026-04-29 10:54 -22.37216 -135.28185 37111 ft 443 kts 105°
2026-04-29 10:55 -22.38985 -135.21801 37123 ft 443 kts 105°
2026-04-29 10:55 -22.40753 -135.15416 37124 ft 444 kts 105°
2026-04-29 10:56 -22.42222 -135.10107 37123 ft 444 kts 105°
2026-04-29 10:56 -22.44272 -135.02683 37130 ft 443 kts 105°
2026-04-29 10:57 -22.45748 -134.97331 37118 ft 443 kts 105°
2026-04-29 10:57 -22.47512 -134.90952 37127 ft 444 kts 105°
2026-04-29 10:58 -22.49285 -134.84559 37127 ft 444 kts 105°
2026-04-29 10:58 -22.51055 -134.78175 37128 ft 444 kts 105°
2026-04-29 10:59 -22.52828 -134.71772 37130 ft 444 kts 105°
2026-04-29 10:59 -22.54595 -134.65374 37132 ft 444 kts 104°
2026-04-29 11:00 -22.56356 -134.58981 37130 ft 444 kts 104°
2026-04-29 11:00 -22.58115 -134.52587 37132 ft 443 kts 104°
2026-04-29 11:01 -22.59872 -134.46188 37130 ft 444 kts 104°
2026-04-29 11:01 -22.61630 -134.39771 37128 ft 444 kts 104°
2026-04-29 11:02 -22.63384 -134.33364 37129 ft 444 kts 104°
2026-04-29 11:02 -22.65135 -134.26950 37129 ft 445 kts 104°
2026-04-29 11:03 -22.66874 -134.20576 37135 ft 444 kts 104°
2026-04-29 11:03 -22.68634 -134.14114 37131 ft 445 kts 104°
2026-04-29 11:04 -22.70380 -134.07685 37132 ft 445 kts 104°
2026-04-29 11:04 -22.72124 -134.01257 37130 ft 445 kts 104°
2026-04-29 11:05 -22.73866 -133.94826 37134 ft 445 kts 104°
2026-04-29 11:05 -22.75594 -133.88434 37134 ft 445 kts 104°
2026-04-29 11:06 -22.77330 -133.82001 37138 ft 445 kts 104°
2026-04-29 11:06 -22.79067 -133.75554 37136 ft 445 kts 104°
2026-04-29 11:07 -22.80811 -133.69070 37138 ft 446 kts 104°
2026-04-29 11:07 -22.82529 -133.62669 37137 ft 446 kts 104°
2026-04-29 11:08 -22.84270 -133.56171 37137 ft 445 kts 104°
2026-04-29 11:08 -22.85984 -133.49765 37137 ft 445 kts 104°
2026-04-29 11:09 -22.87709 -133.43309 37137 ft 445 kts 104°
2026-04-29 11:09 -22.89430 -133.36855 37139 ft 445 kts 104°
2026-04-29 11:10 -22.91143 -133.30414 37140 ft 445 kts 104°
2026-04-29 11:10 -22.92861 -133.23950 37140 ft 445 kts 104°
2026-04-29 11:11 -22.94573 -133.17492 37138 ft 446 kts 104°
2026-04-29 11:11 -22.96281 -133.11034 37139 ft 445 kts 104°
2026-04-29 11:12 -22.97988 -133.04578 37138 ft 445 kts 104°
2026-04-29 11:12 -22.99694 -132.98117 37139 ft 445 kts 104°
2026-04-29 11:13 -23.01394 -132.91657 37141 ft 445 kts 104°
2026-04-29 11:13 -23.03090 -132.85204 37143 ft 445 kts 104°
2026-04-29 11:14 -23.04785 -132.78738 37139 ft 445 kts 104°
2026-04-29 11:14 -23.06478 -132.72271 37140 ft 445 kts 104°
2026-04-29 11:15 -23.08165 -132.65821 37144 ft 444 kts 104°
2026-04-29 11:15 -23.09849 -132.59368 37139 ft 444 kts 104°
2026-04-29 11:16 -23.11535 -132.52894 37138 ft 445 kts 104°
2026-04-29 11:16 -23.13211 -132.46447 37143 ft 444 kts 104°
2026-04-29 11:17 -23.14891 -132.39975 37143 ft 445 kts 104°
2026-04-29 11:17 -23.16565 -132.33512 37143 ft 444 kts 104°
2026-04-29 11:18 -23.18237 -132.27043 37143 ft 445 kts 104°
2026-04-29 11:18 -23.19909 -132.20569 37142 ft 444 kts 104°
2026-04-29 11:19 -23.21563 -132.14152 37147 ft 444 kts 104°
2026-04-29 11:19 -23.23234 -132.07648 37142 ft 444 kts 104°
2026-04-29 11:20 -23.24892 -132.01187 37144 ft 444 kts 104°
2026-04-29 11:20 -23.26536 -131.94768 37146 ft 443 kts 104°
2026-04-29 11:21 -23.28189 -131.88308 37149 ft 443 kts 104°
2026-04-29 11:21 -23.29839 -131.81846 37146 ft 443 kts 104°
2026-04-29 11:22 -23.31486 -131.75382 37146 ft 443 kts 104°
2026-04-29 11:22 -23.33127 -131.68927 37148 ft 443 kts 104°
2026-04-29 11:23 -23.34771 -131.62446 37147 ft 444 kts 104°
2026-04-29 11:23 -23.36409 -131.55982 37147 ft 443 kts 104°
2026-04-29 11:24 -23.38043 -131.49523 37147 ft 443 kts 104°
2026-04-29 11:24 -23.39675 -131.43056 37149 ft 443 kts 104°
2026-04-29 11:25 -23.41301 -131.36600 37148 ft 443 kts 104°
2026-04-29 11:25 -23.42929 -131.30126 37148 ft 444 kts 104°
2026-04-29 11:26 -23.45367 -131.20405 37148 ft 443 kts 104°
2026-04-29 11:26 -23.46987 -131.13938 37147 ft 442 kts 104°
2026-04-29 11:27 -23.48604 -131.07464 37153 ft 444 kts 104°
2026-04-29 11:27 -23.50217 -131.00993 37150 ft 443 kts 104°
2026-04-29 11:28 -23.51832 -130.94503 37147 ft 444 kts 104°
2026-04-29 11:28 -23.53445 -130.88010 37148 ft 444 kts 105°
2026-04-29 11:29 -23.55056 -130.81515 37154 ft 444 kts 105°
2026-04-29 11:29 -23.56651 -130.75065 37154 ft 443 kts 105°
2026-04-29 11:30 -23.58253 -130.68579 37152 ft 444 kts 105°
2026-04-29 11:30 -23.59857 -130.62073 37156 ft 444 kts 105°
2026-04-29 11:31 -23.61455 -130.55578 37155 ft 443 kts 105°
2026-04-29 11:31 -23.63049 -130.49082 37156 ft 444 kts 105°
2026-04-29 11:32 -23.64645 -130.42574 37157 ft 444 kts 105°
2026-04-29 11:32 -23.66233 -130.36078 37159 ft 444 kts 105°
2026-04-29 11:33 -23.67821 -130.29575 37155 ft 443 kts 105°
2026-04-29 11:33 -23.69403 -130.23084 37156 ft 443 kts 105°
2026-04-29 11:34 -23.70982 -130.16595 37155 ft 443 kts 105°
2026-04-29 11:34 -23.72563 -130.10091 37157 ft 443 kts 104°
2026-04-29 11:35 -23.74138 -130.03601 37158 ft 442 kts 104°
2026-04-29 11:35 -23.75698 -129.97113 37161 ft 442 kts 104°
2026-04-29 11:36 -23.77202 -129.90627 37156 ft 441 kts 104°
2026-04-29 11:36 -23.78710 -129.84147 37157 ft 440 kts 104°
2026-04-29 11:37 -23.80225 -129.77663 37155 ft 441 kts 104°
2026-04-29 11:37 -23.81742 -129.71167 37159 ft 442 kts 104°
2026-04-29 11:38 -23.83252 -129.64680 37162 ft 439 kts 104°
2026-04-29 11:38 -23.84744 -129.58253 37159 ft 440 kts 104°
2026-04-29 11:39 -23.86247 -129.51764 37162 ft 441 kts 104°
2026-04-29 11:39 -23.87742 -129.45296 37161 ft 438 kts 104°
2026-04-29 11:40 -23.89230 -129.38845 37158 ft 437 kts 104°
2026-04-29 11:40 -23.90715 -129.32397 37158 ft 439 kts 104°
2026-04-29 11:41 -23.92199 -129.25935 37161 ft 438 kts 104°
2026-04-29 11:41 -23.93678 -129.19484 37162 ft 439 kts 104°
2026-04-29 11:42 -23.95156 -129.13024 37161 ft 437 kts 104°
2026-04-29 11:42 -23.96626 -129.06585 37154 ft 437 kts 104°
2026-04-29 11:43 -23.97846 -129.01231 37161 ft 437 kts 104°
2026-04-29 11:43 -23.99316 -128.94768 37162 ft 438 kts 104°
2026-04-29 11:44 -24.00779 -128.88322 37160 ft 436 kts 104°
2026-04-29 11:44 -24.02240 -128.81872 37150 ft 438 kts 104°
2026-04-29 11:45 -24.03701 -128.75409 37150 ft 437 kts 104°
2026-04-29 11:45 -24.05155 -128.68963 37154 ft 437 kts 104°
2026-04-29 11:46 -24.06606 -128.62514 37162 ft 437 kts 104°
2026-04-29 11:46 -24.08057 -128.56059 37169 ft 436 kts 104°
2026-04-29 11:47 -24.09494 -128.49647 37172 ft 437 kts 104°
2026-04-29 11:47 -24.10941 -128.43178 37174 ft 438 kts 104°
2026-04-29 11:48 -24.12385 -128.36712 37167 ft 437 kts 104°
2026-04-29 11:48 -24.13828 -128.30234 37167 ft 438 kts 104°
2026-04-29 11:49 -24.15265 -128.23768 37166 ft 438 kts 104°
2026-04-29 11:49 -24.16704 -128.17281 37168 ft 438 kts 104°
2026-04-29 11:50 -24.18139 -128.10799 37168 ft 438 kts 104°
2026-04-29 11:50 -24.19573 -128.04306 37171 ft 438 kts 104°
2026-04-29 11:51 -24.21001 -127.97823 37161 ft 438 kts 105°
2026-04-29 11:51 -24.22431 -127.91321 37165 ft 439 kts 105°
2026-04-29 11:52 -24.23856 -127.84830 37162 ft 439 kts 105°
2026-04-29 11:52 -24.25280 -127.78324 37162 ft 439 kts 105°
2026-04-29 11:53 -24.26703 -127.71815 37159 ft 439 kts 105°
2026-04-29 11:53 -24.28120 -127.65314 37162 ft 439 kts 105°
2026-04-29 11:54 -24.29535 -127.58809 37166 ft 438 kts 105°
2026-04-29 11:54 -24.30947 -127.52304 37169 ft 439 kts 105°
2026-04-29 11:55 -24.32358 -127.45789 37167 ft 439 kts 105°
2026-04-29 11:55 -24.33765 -127.39279 37164 ft 439 kts 105°
2026-04-29 11:56 -24.35171 -127.32761 37159 ft 439 kts 105°
2026-04-29 11:56 -24.36572 -127.26250 37169 ft 439 kts 105°
2026-04-29 11:57 -24.37972 -127.19731 37167 ft 439 kts 105°
2026-04-29 11:57 -24.39368 -127.13211 37169 ft 439 kts 105°
2026-04-29 11:58 -24.40763 -127.06688 37169 ft 438 kts 105°
2026-04-29 11:58 -24.42151 -127.00175 37168 ft 439 kts 105°
2026-04-29 11:59 -24.43540 -126.93651 37169 ft 439 kts 105°
2026-04-29 11:59 -24.44924 -126.87132 37169 ft 439 kts 105°
2026-04-29 12:00 -24.46304 -126.80616 37168 ft 438 kts 105°
2026-04-29 12:00 -24.47683 -126.74093 37165 ft 439 kts 105°
2026-04-29 12:01 -24.49058 -126.67571 37168 ft 439 kts 105°
2026-04-29 12:01 -24.50432 -126.61045 37171 ft 439 kts 105°
2026-04-29 12:02 -24.51801 -126.54520 37171 ft 439 kts 105°
2026-04-29 12:02 -24.53160 -126.48037 37174 ft 439 kts 105°
2026-04-29 12:03 -24.54523 -126.41514 37169 ft 439 kts 105°
2026-04-29 12:03 -24.55885 -126.34983 37173 ft 439 kts 105°
2026-04-29 12:04 -24.57245 -126.28446 37171 ft 439 kts 105°
2026-04-29 12:04 -24.58602 -126.21905 37174 ft 439 kts 105°
2026-04-29 12:05 -24.59957 -126.15363 37178 ft 439 kts 105°
2026-04-29 12:05 -24.61309 -126.08820 37179 ft 439 kts 105°
2026-04-29 12:06 -24.62660 -126.02268 37179 ft 439 kts 105°
2026-04-29 12:06 -24.64005 -125.95727 37181 ft 439 kts 105°
2026-04-29 12:07 -24.65349 -125.89178 37182 ft 439 kts 105°
2026-04-29 12:07 -24.66691 -125.82622 37183 ft 439 kts 105°
2026-04-29 12:08 -24.68028 -125.76073 37184 ft 439 kts 105°
2026-04-29 12:08 -24.69362 -125.69524 37186 ft 439 kts 105°
2026-04-29 12:09 -24.70695 -125.62967 37184 ft 439 kts 105°
2026-04-29 12:09 -24.72021 -125.56429 37182 ft 439 kts 105°
2026-04-29 12:10 -24.73339 -125.49916 37183 ft 438 kts 105°
2026-04-29 12:10 -24.74668 -125.43332 37181 ft 438 kts 105°
2026-04-29 12:11 -24.75977 -125.36831 37182 ft 438 kts 105°
2026-04-29 12:11 -24.77292 -125.30285 37184 ft 438 kts 105°
2026-04-29 12:12 -24.78605 -125.23735 37180 ft 438 kts 105°
2026-04-29 12:12 -24.79914 -125.17192 37186 ft 438 kts 105°
2026-04-29 12:13 -24.81221 -125.10650 37184 ft 438 kts 105°
2026-04-29 12:13 -24.82526 -125.04108 37184 ft 437 kts 105°
2026-04-29 12:14 -24.83827 -124.97571 37184 ft 437 kts 105°
2026-04-29 12:14 -24.85131 -124.91038 37184 ft 437 kts 105°
2026-04-29 12:15 -24.86444 -124.84496 37182 ft 437 kts 105°
2026-04-29 12:15 -24.87756 -124.77960 37182 ft 437 kts 105°
2026-04-29 12:16 -24.89066 -124.71415 37181 ft 437 kts 105°
2026-04-29 12:16 -24.90370 -124.64879 37188 ft 437 kts 105°
2026-04-29 12:17 -24.91673 -124.58327 37183 ft 438 kts 105°
2026-04-29 12:17 -24.92971 -124.51782 37185 ft 438 kts 105°
2026-04-29 12:18 -24.94268 -124.45225 37188 ft 438 kts 105°
2026-04-29 12:18 -24.95553 -124.38715 37191 ft 438 kts 105°
2026-04-29 12:19 -24.96842 -124.32164 37190 ft 438 kts 105°
2026-04-29 12:19 -24.98131 -124.25603 37189 ft 438 kts 106°
2026-04-29 12:20 -24.99416 -124.19043 37189 ft 438 kts 106°
2026-04-29 12:20 -25.00697 -124.12485 37191 ft 438 kts 106°
2026-04-29 12:21 -25.01974 -124.05933 37194 ft 438 kts 106°
2026-04-29 12:21 -25.03251 -123.99366 37188 ft 437 kts 106°
2026-04-29 12:22 -25.04523 -123.92810 37195 ft 437 kts 106°
2026-04-29 12:22 -25.05791 -123.86258 37190 ft 437 kts 106°
2026-04-29 12:23 -25.07057 -123.79700 37196 ft 437 kts 106°
2026-04-29 12:23 -25.08319 -123.73143 37189 ft 437 kts 106°
2026-04-29 12:24 -25.09578 -123.66591 37199 ft 437 kts 106°
2026-04-29 12:24 -25.10835 -123.60032 37187 ft 436 kts 106°
2026-04-29 12:25 -25.12085 -123.53491 37184 ft 436 kts 106°
2026-04-29 12:26 -25.13957 -123.43666 37185 ft 436 kts 106°
2026-04-29 12:26 -25.15193 -123.37158 37191 ft 436 kts 106°
2026-04-29 12:27 -25.16433 -123.30610 37184 ft 436 kts 106°
2026-04-29 12:27 -25.17669 -123.24071 37197 ft 435 kts 106°
2026-04-29 12:28 -25.18903 -123.17525 37191 ft 435 kts 106°
2026-04-29 12:28 -25.20134 -123.10980 37189 ft 435 kts 106°
2026-04-29 12:29 -25.21360 -123.04441 37192 ft 435 kts 106°
2026-04-29 12:29 -25.22582 -122.97905 37194 ft 435 kts 106°
2026-04-29 12:30 -25.23803 -122.91362 37194 ft 435 kts 106°
2026-04-29 12:30 -25.25022 -122.84812 37197 ft 435 kts 107°
2026-04-29 12:31 -25.26236 -122.78273 37203 ft 434 kts 107°
2026-04-29 12:31 -25.27242 -122.72839 37199 ft 434 kts 107°
2026-04-29 12:32 -25.28458 -122.66258 37197 ft 434 kts 107°
2026-04-29 12:32 -25.29654 -122.59767 37196 ft 434 kts 107°
2026-04-29 12:33 -25.30863 -122.53193 37196 ft 434 kts 107°
2026-04-29 12:33 -25.32058 -122.46671 37196 ft 433 kts 107°
2026-04-29 12:34 -25.33252 -122.40145 37195 ft 433 kts 107°
2026-04-29 12:34 -25.34434 -122.33662 37197 ft 433 kts 107°
2026-04-29 12:35 -25.35618 -122.27154 37196 ft 432 kts 107°
2026-04-29 12:35 -25.36799 -122.20641 37194 ft 432 kts 107°
2026-04-29 12:36 -25.37978 -122.14126 37200 ft 432 kts 107°
2026-04-29 12:36 -25.39154 -122.07611 37193 ft 431 kts 107°
2026-04-29 12:37 -25.40325 -122.01106 37192 ft 431 kts 107°
2026-04-29 12:37 -25.41493 -121.94602 37196 ft 431 kts 107°
2026-04-29 12:38 -25.42657 -121.88102 37194 ft 431 kts 107°
2026-04-29 12:38 -25.43817 -121.81605 37193 ft 431 kts 107°
2026-04-29 12:39 -25.44973 -121.75110 37193 ft 430 kts 107°
2026-04-29 12:39 -25.46128 -121.68611 37195 ft 430 kts 107°
2026-04-29 12:40 -25.47280 -121.62110 37194 ft 430 kts 107°
2026-04-29 12:40 -25.48429 -121.55605 37191 ft 430 kts 107°
2026-04-29 12:41 -25.49574 -121.49105 37199 ft 430 kts 107°
2026-04-29 12:41 -25.50716 -121.42607 37195 ft 430 kts 107°
2026-04-29 12:42 -25.51856 -121.36102 37196 ft 431 kts 107°
2026-04-29 12:42 -25.52995 -121.29586 37196 ft 431 kts 107°
2026-04-29 12:43 -25.54130 -121.23076 37200 ft 431 kts 107°
2026-04-29 12:43 -25.55263 -121.16559 37201 ft 431 kts 107°
2026-04-29 12:44 -25.56394 -121.10040 37200 ft 431 kts 107°
2026-04-29 12:44 -25.57515 -121.03555 37201 ft 431 kts 106°
2026-04-29 12:45 -25.58647 -120.96987 37202 ft 432 kts 106°
2026-04-29 12:45 -25.59221 -120.93747 37837 ft 440 kts 102°
2026-04-29 12:45 -25.59819 -120.90332 37469 ft 452 kts 101°
2026-04-29 12:45 -25.60406 -120.86934 37101 ft 457 kts 101°
2026-04-29 12:46 -25.60997 -120.83481 37003 ft 454 kts 101°
2026-04-29 12:46 -25.62168 -120.76614 37000 ft 455 kts 101°
2026-04-29 12:47 -25.63340 -120.69721 37000 ft 455 kts 101°
2026-04-29 12:47 -25.64508 -120.62831 37000 ft 455 kts 101°
2026-04-29 12:48 -25.65672 -120.55944 37001 ft 455 kts 101°
2026-04-29 12:48 -25.66835 -120.49042 37000 ft 455 kts 101°
2026-04-29 12:49 -25.67995 -120.42147 37000 ft 455 kts 101°
2026-04-29 12:49 -25.69151 -120.35249 37000 ft 455 kts 101°
2026-04-29 12:50 -25.70304 -120.28355 37000 ft 455 kts 101°
2026-04-29 12:50 -25.71455 -120.21452 37000 ft 455 kts 101°
2026-04-29 12:51 -25.72603 -120.14554 37001 ft 455 kts 101°
2026-04-29 12:51 -25.73750 -120.07652 37001 ft 455 kts 101°
2026-04-29 12:52 -25.74895 -120.00748 37001 ft 455 kts 101°
2026-04-29 12:52 -25.76037 -119.93848 37001 ft 455 kts 101°
2026-04-29 12:53 -25.77190 -119.86943 37001 ft 455 kts 101°
2026-04-29 12:53 -25.78345 -119.80042 37001 ft 455 kts 101°
2026-04-29 12:54 -25.79499 -119.73130 37001 ft 455 kts 101°
2026-04-29 12:54 -25.80648 -119.66221 37002 ft 455 kts 101°
2026-04-29 12:55 -25.81790 -119.59318 37002 ft 455 kts 101°
2026-04-29 12:55 -25.82930 -119.52405 37001 ft 455 kts 101°
2026-04-29 12:56 -25.84067 -119.45492 37001 ft 455 kts 101°
2026-04-29 12:56 -25.85200 -119.38584 37002 ft 455 kts 101°
2026-04-29 12:57 -25.86330 -119.31671 37001 ft 455 kts 101°
2026-04-29 12:57 -25.87457 -119.24756 37001 ft 455 kts 100°
2026-04-29 12:58 -25.88581 -119.17835 37001 ft 455 kts 100°
2026-04-29 12:58 -25.89694 -119.10966 37001 ft 455 kts 100°
2026-04-29 12:59 -25.90811 -119.04048 37001 ft 455 kts 100°
2026-04-29 12:59 -25.91931 -118.97086 37001 ft 455 kts 100°
2026-04-29 13:00 -25.93042 -118.90166 37000 ft 455 kts 100°
2026-04-29 13:00 -25.94142 -118.83285 37000 ft 455 kts 100°
2026-04-29 13:00 -25.94684 -118.79834 36291 ft 450 kts 105°
2026-04-29 13:01 -25.95197 -118.76472 36661 ft 433 kts 105°
2026-04-29 13:01 -25.95708 -118.73210 37048 ft 427 kts 105°
2026-04-29 13:01 -25.96226 -118.69962 37219 ft 427 kts 105°
2026-04-29 13:02 -25.97276 -118.63413 37221 ft 435 kts 105°
2026-04-29 13:02 -25.98326 -118.56789 37225 ft 435 kts 105°
2026-04-29 13:03 -25.99369 -118.50177 37221 ft 434 kts 105°
2026-04-29 13:03 -26.00409 -118.43570 37216 ft 434 kts 105°
2026-04-29 13:04 -26.01447 -118.36953 37214 ft 434 kts 105°
2026-04-29 13:04 -26.02481 -118.30345 37217 ft 434 kts 105°
2026-04-29 13:05 -26.03513 -118.23723 37221 ft 434 kts 105°
2026-04-29 13:05 -26.04540 -118.17110 37221 ft 434 kts 105°
2026-04-29 13:06 -26.05565 -118.10493 37223 ft 434 kts 105°
2026-04-29 13:06 -26.06586 -118.03877 37226 ft 434 kts 105°
2026-04-29 13:07 -26.07596 -117.97309 37226 ft 434 kts 105°
2026-04-29 13:07 -26.08612 -117.90683 37228 ft 434 kts 105°
2026-04-29 13:08 -26.09622 -117.84072 37230 ft 434 kts 105°
2026-04-29 13:08 -26.10631 -117.77453 37227 ft 434 kts 105°
2026-04-29 13:09 -26.11637 -117.70827 37231 ft 434 kts 105°
2026-04-29 13:09 -26.12637 -117.64219 37230 ft 434 kts 105°
2026-04-29 13:10 -26.13635 -117.57599 37231 ft 434 kts 105°
2026-04-29 13:10 -26.14630 -117.50980 37231 ft 433 kts 105°
2026-04-29 13:11 -26.15623 -117.44357 37230 ft 433 kts 105°
2026-04-29 13:11 -26.16611 -117.37743 37232 ft 433 kts 105°
2026-04-29 13:12 -26.17594 -117.31141 37233 ft 433 kts 105°
2026-04-29 13:12 -26.18575 -117.24529 37230 ft 433 kts 105°
2026-04-29 13:13 -26.19552 -117.17927 37234 ft 432 kts 105°
2026-04-29 13:13 -26.20526 -117.11321 37232 ft 432 kts 105°
2026-04-29 13:14 -26.21495 -117.04726 37231 ft 431 kts 105°
2026-04-29 13:14 -26.22460 -116.98137 37232 ft 431 kts 105°
2026-04-29 13:15 -26.23421 -116.91555 37227 ft 431 kts 105°
2026-04-29 13:15 -26.24379 -116.84971 37239 ft 430 kts 105°
2026-04-29 13:16 -26.25332 -116.78396 37229 ft 430 kts 105°
2026-04-29 13:16 -26.26283 -116.71822 37244 ft 429 kts 105°
2026-04-29 13:17 -26.27070 -116.66358 37231 ft 429 kts 105°
2026-04-29 13:17 -26.28013 -116.59796 37232 ft 429 kts 105°
2026-04-29 13:18 -26.28954 -116.53228 37235 ft 429 kts 105°
2026-04-29 13:18 -26.29890 -116.46667 37238 ft 429 kts 105°
2026-04-29 13:19 -26.30825 -116.40095 37238 ft 429 kts 105°
2026-04-29 13:19 -26.31754 -116.33539 37242 ft 429 kts 105°
2026-04-29 13:20 -26.32681 -116.26974 37245 ft 429 kts 105°
2026-04-29 13:20 -26.33606 -116.20409 37242 ft 428 kts 105°
2026-04-29 13:21 -26.34526 -116.13848 37240 ft 428 kts 105°
2026-04-29 13:21 -26.35444 -116.07286 37244 ft 428 kts 105°
2026-04-29 13:22 -26.36352 -116.00769 37243 ft 428 kts 105°
2026-04-29 13:22 -26.37268 -115.94178 37245 ft 428 kts 105°
2026-04-29 13:23 -26.38169 -115.87666 37243 ft 427 kts 105°
2026-04-29 13:23 -26.39071 -115.81123 37244 ft 427 kts 105°
2026-04-29 13:24 -26.39972 -115.74572 37248 ft 427 kts 105°
2026-04-29 13:24 -26.40867 -115.68034 37247 ft 427 kts 105°
2026-04-29 13:25 -26.41760 -115.61493 37248 ft 426 kts 105°
2026-04-29 13:25 -26.43093 -115.51687 37246 ft 426 kts 105°
2026-04-29 13:26 -26.43977 -115.45154 37242 ft 426 kts 105°
2026-04-29 13:26 -26.44858 -115.38623 37247 ft 425 kts 105°
2026-04-29 13:27 -26.45734 -115.32097 37248 ft 425 kts 105°
2026-04-29 13:27 -26.46608 -115.25575 37246 ft 425 kts 105°
2026-04-29 13:28 -26.47479 -115.19048 37246 ft 425 kts 105°
2026-04-29 13:28 -26.48349 -115.12523 37247 ft 425 kts 105°
2026-04-29 13:29 -26.49217 -115.05990 37244 ft 425 kts 105°
2026-04-29 13:29 -26.50082 -114.99463 37249 ft 425 kts 105°
2026-04-29 13:30 -26.50972 -114.92935 37251 ft 425 kts 105°
2026-04-29 13:30 -26.51872 -114.86461 37250 ft 425 kts 105°
2026-04-29 13:31 -26.52781 -114.79901 37253 ft 425 kts 105°
2026-04-29 13:31 -26.53679 -114.73377 37253 ft 425 kts 105°
2026-04-29 13:32 -26.54567 -114.66889 37255 ft 425 kts 105°
2026-04-29 13:32 -26.55456 -114.60371 37258 ft 425 kts 105°
2026-04-29 13:33 -26.56345 -114.53834 37261 ft 425 kts 105°
2026-04-29 13:33 -26.57234 -114.47270 37261 ft 425 kts 105°
2026-04-29 13:34 -26.58110 -114.40782 37263 ft 425 kts 105°
2026-04-29 13:34 -26.58987 -114.34262 37261 ft 424 kts 105°
2026-04-29 13:35 -26.59861 -114.27741 37257 ft 424 kts 105°
2026-04-29 13:35 -26.60730 -114.21231 37262 ft 424 kts 105°
2026-04-29 13:36 -26.61597 -114.14720 37267 ft 423 kts 105°
2026-04-29 13:36 -26.62459 -114.08218 37267 ft 423 kts 105°
2026-04-29 13:37 -26.63317 -114.01724 37261 ft 422 kts 105°
2026-04-29 13:37 -26.64172 -113.95229 37277 ft 422 kts 105°
2026-04-29 13:38 -26.65021 -113.88758 37257 ft 421 kts 105°
2026-04-29 13:38 -26.65868 -113.82281 37259 ft 420 kts 105°
2026-04-29 13:39 -26.66710 -113.75812 37257 ft 420 kts 105°
2026-04-29 13:39 -26.67548 -113.69352 37256 ft 420 kts 105°
2026-04-29 13:40 -26.68382 -113.62909 37257 ft 419 kts 105°
2026-04-29 13:40 -26.69208 -113.56496 37258 ft 419 kts 105°
2026-04-29 13:41 -26.70036 -113.50047 37252 ft 419 kts 105°
2026-04-29 13:41 -26.70867 -113.43559 37249 ft 419 kts 105°
2026-04-29 13:42 -26.71684 -113.37148 37251 ft 419 kts 104°
2026-04-29 13:42 -26.72505 -113.30689 37247 ft 420 kts 104°
2026-04-29 13:43 -26.73323 -113.24221 37249 ft 420 kts 104°
2026-04-29 13:43 -26.74139 -113.17750 37251 ft 421 kts 104°
2026-04-29 13:44 -26.74954 -113.11260 37251 ft 421 kts 104°
2026-04-29 13:44 -26.75767 -113.04762 37254 ft 422 kts 104°
2026-04-29 13:45 -26.76579 -112.98244 37255 ft 423 kts 103°
2026-04-29 13:45 -26.77390 -112.91713 37261 ft 424 kts 103°
2026-04-29 13:46 -26.78200 -112.85163 37263 ft 425 kts 103°
2026-04-29 13:46 -26.79008 -112.78604 37265 ft 426 kts 103°
2026-04-29 13:47 -26.79815 -112.72023 37270 ft 427 kts 103°
2026-04-29 13:47 -26.80622 -112.65422 37270 ft 428 kts 103°
2026-04-29 13:48 -26.81427 -112.58811 37273 ft 429 kts 102°
2026-04-29 13:48 -26.82229 -112.52192 37277 ft 430 kts 102°
2026-04-29 13:49 -26.83030 -112.45557 37276 ft 430 kts 102°
2026-04-29 13:49 -26.83828 -112.38924 37271 ft 431 kts 102°
2026-04-29 13:50 -26.84620 -112.32310 37271 ft 431 kts 102°
2026-04-29 13:50 -26.85414 -112.25657 37272 ft 431 kts 102°
2026-04-29 13:51 -26.86204 -112.19000 37272 ft 432 kts 102°
2026-04-29 13:51 -26.86994 -112.12330 37272 ft 432 kts 102°
2026-04-29 13:52 -26.87779 -112.05668 37265 ft 432 kts 101°
2026-04-29 13:52 -26.88563 -111.98988 37263 ft 432 kts 101°
2026-04-29 13:53 -26.89342 -111.92316 37265 ft 432 kts 101°
2026-04-29 13:53 -26.90119 -111.85640 37265 ft 432 kts 101°
2026-04-29 13:54 -26.90894 -111.78958 37260 ft 433 kts 101°
2026-04-29 13:54 -26.91667 -111.72266 37264 ft 433 kts 101°
2026-04-29 13:55 -26.92438 -111.65576 37258 ft 433 kts 101°
2026-04-29 13:55 -26.93207 -111.58864 37117 ft 435 kts 101°
2026-04-29 13:56 -26.93590 -111.55501 36636 ft 437 kts 101°
2026-04-29 13:56 -26.93975 -111.52110 35928 ft 439 kts 101°
2026-04-29 13:56 -26.94363 -111.48700 35092 ft 444 kts 101°
2026-04-29 13:56 -26.94753 -111.45265 34290 ft 446 kts 100°
2026-04-29 13:57 -26.95145 -111.41808 33354 ft 448 kts 100°
2026-04-29 13:57 -26.95539 -111.38329 32359 ft 452 kts 99°
2026-04-29 13:57 -26.95934 -111.34834 31608 ft 451 kts 99°
2026-04-29 13:57 -26.96198 -111.32481 31235 ft 448 kts 99°
2026-04-29 13:58 -26.96709 -111.27923 30462 ft 443 kts 98°
2026-04-29 13:58 -26.97089 -111.24520 29897 ft 437 kts 98°
2026-04-29 13:58 -26.97464 -111.21162 29324 ft 432 kts 98°
2026-04-29 13:58 -26.97833 -111.17842 28770 ft 426 kts 98°
2026-04-29 13:59 -26.98197 -111.14566 28225 ft 421 kts 98°
2026-04-29 13:59 -26.98557 -111.11323 27671 ft 416 kts 98°
2026-04-29 13:59 -26.98911 -111.08124 27137 ft 412 kts 98°
2026-04-29 13:59 -26.99262 -111.04952 26604 ft 408 kts 98°
2026-04-29 14:00 -26.99609 -111.01810 26073 ft 404 kts 98°
2026-04-29 14:00 -26.99952 -110.98689 25546 ft 401 kts 98°
2026-04-29 14:00 -27.00292 -110.95596 25005 ft 398 kts 97°
2026-04-29 14:00 -27.00628 -110.92528 24454 ft 397 kts 97°
2026-04-29 14:01 -27.00961 -110.89480 23948 ft 394 kts 97°
2026-04-29 14:01 -27.01292 -110.86439 23415 ft 391 kts 97°
2026-04-29 14:01 -27.01619 -110.83427 22879 ft 386 kts 97°
2026-04-29 14:01 -27.01941 -110.80455 22361 ft 382 kts 97°
2026-04-29 14:02 -27.02260 -110.77509 21842 ft 378 kts 98°
2026-04-29 14:02 -27.02574 -110.74603 21342 ft 375 kts 98°
2026-04-29 14:02 -27.02886 -110.71712 20823 ft 371 kts 98°
2026-04-29 14:02 -27.03194 -110.68850 20318 ft 369 kts 98°
2026-04-29 14:03 -27.03499 -110.66007 19816 ft 366 kts 98°
2026-04-29 14:03 -27.03799 -110.63214 19291 ft 364 kts 98°
2026-04-29 14:03 -27.04099 -110.60404 18798 ft 362 kts 98°
2026-04-29 14:03 -27.04398 -110.57603 18235 ft 361 kts 98°
2026-04-29 14:04 -27.04598 -110.55734 17926 ft 357 kts 98°
2026-04-29 14:04 -27.04981 -110.52086 17267 ft 353 kts 96°
2026-04-29 14:04 -27.05078 -110.50229 16804 ft 355 kts 93°
2026-04-29 14:04 -27.05177 -110.47454 16158 ft 356 kts 93°
2026-04-29 14:05 -27.05279 -110.44685 15675 ft 353 kts 93°
2026-04-29 14:05 -27.05382 -110.41943 15184 ft 350 kts 92°
2026-04-29 14:05 -27.05484 -110.39226 14695 ft 348 kts 92°
2026-04-29 14:05 -27.05586 -110.36523 14185 ft 347 kts 92°
2026-04-29 14:06 -27.05687 -110.33825 13692 ft 344 kts 92°
2026-04-29 14:06 -27.05784 -110.31167 13207 ft 340 kts 92°
2026-04-29 14:06 -27.05880 -110.28524 12731 ft 337 kts 92°
2026-04-29 14:06 -27.05975 -110.25910 12261 ft 334 kts 92°
2026-04-29 14:07 -27.06069 -110.23312 11787 ft 332 kts 92°
2026-04-29 14:07 -27.06161 -110.20770 11337 ft 329 kts 92°
2026-04-29 14:07 -27.06253 -110.18184 10869 ft 327 kts 92°
2026-04-29 14:07 -27.06343 -110.15675 10427 ft 324 kts 92°
2026-04-29 14:08 -27.06431 -110.13202 10282 ft 311 kts 92°
2026-04-29 14:08 -27.06514 -110.10825 10163 ft 298 kts 92°
2026-04-29 14:08 -27.06595 -110.08522 10005 ft 287 kts 92°
2026-04-29 14:08 -27.06671 -110.06349 9815 ft 277 kts 92°
2026-04-29 14:09 -27.06745 -110.04210 9495 ft 272 kts 92°
2026-04-29 14:09 -27.06817 -110.02105 9136 ft 269 kts 92°
2026-04-29 14:09 -27.06889 -110.00015 8797 ft 267 kts 92°
2026-04-29 14:09 -27.06960 -109.97941 8440 ft 264 kts 92°
2026-04-29 14:10 -27.07029 -109.95889 8093 ft 262 kts 92°
2026-04-29 14:10 -27.07098 -109.93853 7748 ft 260 kts 93°
2026-04-29 14:10 -27.07167 -109.91832 7398 ft 259 kts 92°
2026-04-29 14:10 -27.07235 -109.89818 7050 ft 258 kts 92°
2026-04-29 14:11 -27.07302 -109.87812 6703 ft 257 kts 93°
2026-04-29 14:11 -27.07370 -109.85815 6340 ft 256 kts 92°
2026-04-29 14:11 -27.07437 -109.83825 5990 ft 254 kts 92°
2026-04-29 14:11 -27.07502 -109.81855 5640 ft 253 kts 92°
2026-04-29 14:12 -27.07567 -109.79890 5300 ft 251 kts 91°
2026-04-29 14:12 -27.07279 -109.77947 4728 ft 259 kts 70°
2026-04-29 14:12 -27.06519 -109.76132 4510 ft 252 kts 66°
2026-04-29 14:12 -27.05907 -109.74345 4407 ft 239 kts 77°
2026-04-29 14:13 -27.05680 -109.72581 4320 ft 227 kts 89°
2026-04-29 14:13 -27.05761 -109.70849 4204 ft 218 kts 97°
2026-04-29 14:13 -27.06030 -109.69191 3977 ft 215 kts 102°
2026-04-29 14:13 -27.06389 -109.67576 3728 ft 213 kts 104°
2026-04-29 14:14 -27.06785 -109.65970 3428 ft 212 kts 105°
2026-04-29 14:14 -27.07178 -109.64421 3338 ft 200 kts 105°
2026-04-29 14:14 -27.07547 -109.62964 3234 ft 190 kts 104°
2026-04-29 14:14 -27.07897 -109.61546 3030 ft 184 kts 105°
2026-04-29 14:15 -27.08220 -109.60238 2980 ft 167 kts 105°
2026-04-29 14:15 -27.08550 -109.59046 2869 ft 153 kts 111°
2026-04-29 14:15 -27.09022 -109.58024 2692 ft 145 kts 118°
2026-04-29 14:15 -27.09506 -109.57047 2461 ft 139 kts 116°
2026-04-29 14:16 -27.09951 -109.56106 2500 ft 143 kts 117°
2026-04-29 14:16 -27.10427 -109.55106 2492 ft 143 kts 116°
2026-04-29 14:16 -27.10889 -109.54130 2493 ft 143 kts 116°
2026-04-29 14:16 -27.11358 -109.53139 2495 ft 144 kts 115°
2026-04-29 14:17 -27.11836 -109.52152 2326 ft 145 kts 118°
2026-04-29 14:17 -27.12368 -109.51194 2048 ft 140 kts 121°
2026-04-29 14:17 -27.12874 -109.50332 1834 ft 126 kts 122°
2026-04-29 14:17 -27.13335 -109.49509 1532 ft 125 kts 116°
2026-04-29 14:18 -27.13700 -109.48619 1208 ft 126 kts 111°
2026-04-29 14:18 -27.13989 -109.47692 875 ft 128 kts 110°
2026-04-29 14:18 -27.14334 -109.46782 654 ft 119 kts 116°
2026-04-29 14:18 -27.14745 -109.46029 387 ft 113 kts 117°
2026-04-29 14:19 -27.15098 -109.45222 352 ft 118 kts 114°
2026-04-29 14:19 -27.15500 -109.44359 517 ft 127 kts 112°
2026-04-29 14:19 -27.15903 -109.43464 215 ft 134 kts 115°
2026-04-29 14:19 -27.16290 -109.42594 174 ft 102 kts 116°
2026-04-29 14:20 -27.16474 -109.42193 207 ft 13 kts 117°
2026-04-29 14:20 -27.16512 -109.42113 211 ft 12 kts 121°
2026-04-29 14:20 -27.16544 -109.42060 214 ft 3 kts 101°
2026-04-29 14:20 -27.16539 -109.42057 215 ft 1 kts 34°
2026-04-29 14:21 -27.16526 -109.42068 215 ft 6 kts 315°
2026-04-29 14:21 -27.16497 -109.42142 212 ft 15 kts 292°
2026-04-29 14:21 -27.16443 -109.42272 202 ft 22 kts 296°
2026-04-29 14:21 -27.16379 -109.42408 187 ft 10 kts 299°
2026-04-29 14:22 -27.16336 -109.42502 180 ft 13 kts 296°
2026-04-29 14:22 -27.16294 -109.42599 174 ft 11 kts 296°
2026-04-29 14:22 -27.16261 -109.42671 169 ft 14 kts 297°
2026-04-29 14:22 -27.16211 -109.42781 164 ft 7 kts 297°
2026-04-29 14:23 -27.16182 -109.42843 162 ft 7 kts 298°
2026-04-29 14:23 -27.16144 -109.42882 162 ft 9 kts 346°
2026-04-29 14:23 -27.16098 -109.42868 161 ft 5 kts 24°
2026-04-29 14:23 -27.16077 -109.42856 161 ft 0 kts 24°
2026-04-29 14:24 -27.16065 -109.42850 160 ft 5 kts 26°
2026-04-29 14:24 -27.16050 -109.42842 160 ft 4 kts 24°
2026-04-29 14:25 -27.16011 -109.42851 159 ft 8 kts 319°
2026-04-29 14:25 -27.15998 -109.42872 158 ft 1 kts 298°
2026-04-29 14:25 -27.15994 -109.42880 158 ft 0 kts 298°
2026-04-29 14:27 -27.15994 -109.42881 158 ft 0 kts 298°